Notices

What's New in latest Release from April 7th, 2021:

- Updated Glossary, including Speed of Maximum Gust, and Total Hourly Precipitation

- Updated national and regional climate services offices contacts and prices information

- Addition of station inventory lists for 1981-2010, 1971-2000, and 1961-1990 Normals.

If you haven't already, please take our survey and provide feedback about our website: https://eccc.sondage-survey.ca/f/LanguageSelection.aspx?s=442ca660-fcf1-47c0-95a9-59707d6fd709

Hourly Data Report for April 13, 2006

TORONTO CITY
ONTARIO

43°40'00.000" N
79°24'00.000" W
112.50 m
6158355
71508
XTO

Download Data

Hourly Data (April 2006)
Hourly Data Report for April 13, 2006
TIME
LST
Temp Definition
°C
Dew Point Definition
°C
Rel Hum Definition
%
Precip. Amount Definition
mm

Wind Dir Definition
10's deg

Wind Spd Definition
km/h
Visibility Definition
km
Stn Press Definition
kPa
Hmdx Definition


Wind Chill Definition


Weather Definition


00:00 10.8 7.8 82   LegendMM LegendMM   99.84     LegendNANA
01:00 10.7 7.7 82   LegendMM LegendMM   99.86     LegendNANA
02:00 10.5 7.6 82   LegendMM LegendMM   99.91     LegendNANA
03:00 10.3 7.2 81   LegendMM LegendMM   99.98     LegendNANA
04:00 9.8 6.9 82   LegendMM LegendMM   100.10     LegendNANA
05:00 9.3 6.5 83   LegendMM LegendMM   100.17     LegendNANA
06:00 9.3 6.4 82   LegendMM LegendMM   100.25     LegendNANA
07:00 10.2 6.6 78   LegendMM LegendMM   100.30     LegendNANA
08:00 10.7 6.5 75   LegendMM LegendMM   100.32     LegendNANA
09:00 11.6 6.9 73   LegendMM LegendMM   100.36     LegendNANA
10:00 12.3 7.7 73   LegendMM LegendMM   100.34     LegendNANA
11:00 13.5 7.6 67   LegendMM LegendMM   100.27     LegendNANA
12:00 15.3 8.3 63   LegendMM LegendMM   100.22     LegendNANA
13:00 16.5 9.6 64   LegendMM LegendMM   100.14     LegendNANA
14:00 16.1 11.0 72   LegendMM LegendMM   100.04     LegendNANA
15:00 16.0 11.4 74   LegendMM LegendMM   99.98     LegendNANA
16:00 17.5 11.0 66   LegendMM LegendMM   99.96     LegendNANA
17:00 18.0 11.1 64   LegendMM LegendMM   99.97     LegendNANA
18:00 18.9 6.3 44   LegendMM LegendMM   99.98     LegendNANA
19:00 17.2 6.0 48   LegendMM LegendMM   100.01     LegendNANA
20:00 16.5 6.0 50   LegendMM LegendMM   100.05     LegendNANA
21:00 13.1 8.3 73   LegendMM LegendMM   100.06     LegendNANA
22:00 13.2 8.8 75   LegendMM LegendMM   100.02     LegendNANA
23:00 12.9 9.2 78   LegendMM LegendMM   99.97     LegendNANA

Notes on Data Quality.

Legend

  • E = Estimated
  • M = Missing
  • NA = Not Available*
  • [empty] = Indicates an unobserved value
Date modified: